period_start,C,m1,H,J0,J1,J2,J3,J4,J5,JA,JB,JC,JD,JJ,JK,JN,#
2018-07-30 00:01:28,0.02,1.16,0.00,29.10,32.65,35.07,13.47,44.28,1011.29,2004.00,3001.01,2718.90,3112.20,599.82,580.89,29.91,0000 0000 0000 0000 000000
2018-07-30 00:06:29,0.03,1.16,0.00,29.10,32.65,35.07,13.45,44.23,1011.34,2004.00,3000.55,2718.28,3111.99,599.91,580.89,29.97,0000 0000 0000 0000 000000
2018-07-30 00:11:30,0.08,1.17,0.00,29.10,32.65,35.07,13.58,44.39,1011.36,2004.00,2999.39,2717.39,3110.73,600.16,581.17,30.02,0000 0000 0000 0000 000000
2018-07-30 00:16:31,0.00,1.17,0.00,29.10,32.65,35.06,13.51,44.34,1011.43,2004.00,2998.88,2716.98,3110.00,599.95,580.98,30.07,0000 0000 0000 0000 000000
2018-07-30 00:21:32,0.03,1.17,0.00,29.10,32.65,35.06,13.42,44.33,1011.64,2004.00,2998.18,2716.63,3109.84,599.91,580.88,30.12,0000 0000 0000 0000 000000
2018-07-30 00:26:34,0.02,1.17,0.00,29.10,32.65,35.05,13.48,44.32,1011.71,2004.00,2997.97,2716.12,3109.27,600.13,581.28,30.17,0000 0000 0000 0000 000000
2018-07-30 00:31:35,0.01,1.17,0.00,29.10,32.64,35.06,13.54,44.32,1011.71,2004.00,2997.39,2716.00,3109.01,599.87,581.01,30.22,0000 0000 0000 0000 000000
2018-07-30 00:36:36,0.05,1.17,0.00,29.10,32.63,35.05,13.60,44.37,1011.71,2004.00,2996.81,2715.38,3108.27,600.14,581.32,30.27,0000 0000 0000 0000 000000
2018-07-30 00:41:37,0.01,1.18,0.00,29.10,32.63,35.05,13.62,44.35,1011.71,2004.00,2996.07,2715.00,3107.99,600.00,581.28,30.32,0000 0000 0000 0000 000000
2018-07-30 00:46:39,0.00,1.18,0.00,29.11,32.63,35.05,13.49,44.20,1011.67,2004.00,2995.98,2715.00,3107.73,599.93,581.02,30.37,0000 0000 0000 0000 000000
2018-07-30 00:51:40,0.03,1.18,0.00,29.12,32.63,35.04,13.57,44.15,1011.62,2004.00,2995.33,2714.76,3107.12,600.13,581.36,30.42,0000 0000 0000 0000 000000
2018-07-30 00:56:41,0.02,1.18,0.00,29.12,32.63,35.03,13.46,44.23,1011.62,2004.00,2994.91,2714.08,3106.98,599.78,580.84,30.47,0000 0000 0000 0000 000000
2018-07-30 01:01:43,0.06,1.18,0.00,29.12,32.63,35.04,13.51,44.31,1011.59,2004.00,2993.82,2713.66,3106.17,599.99,581.07,30.52,0000 0000 0000 0000 000000
2018-07-30 01:06:44,0.06,1.18,0.00,29.15,32.63,35.03,13.50,44.13,1011.57,2004.00,2992.52,2712.80,3105.12,599.86,581.05,30.57,0000 0000 0000 0000 000000
2018-07-30 01:11:45,0.10,1.19,0.00,29.15,32.63,35.04,13.51,44.23,1011.64,2004.00,2990.76,2711.60,3103.75,600.02,581.00,30.62,0000 0000 0000 0000 000000
2018-07-30 01:16:47,0.06,1.19,0.00,29.16,32.64,35.04,13.51,44.29,1011.66,2004.00,2989.32,2710.70,3102.68,600.00,581.12,30.67,0000 0000 0000 0000 000000
2018-07-30 01:21:48,0.03,1.20,0.00,29.17,32.65,35.03,13.49,44.20,1011.55,2004.00,2988.19,2710.00,3101.93,600.01,581.08,30.72,0000 0000 0000 0000 000000
2018-07-30 01:26:49,0.04,1.20,0.00,29.18,32.65,35.04,13.57,44.15,1011.37,2004.00,2987.57,2709.56,3101.14,600.09,580.91,30.77,0000 0000 0000 0000 000000
2018-07-30 01:31:51,0.02,1.20,0.00,29.19,32.65,35.04,13.45,44.39,1011.32,2004.00,2986.89,2709.03,3100.85,599.79,580.61,30.82,0000 0000 0000 0000 000000
2018-07-30 01:36:52,0.03,1.20,0.00,29.20,32.65,35.05,13.51,44.25,1011.35,2004.00,2986.10,2708.93,3100.10,600.00,580.74,30.87,0000 0000 0000 0000 000000
2018-07-30 01:41:53,0.04,1.20,0.00,29.21,32.65,35.05,13.49,44.27,1011.28,2004.00,2985.52,2708.24,3099.96,599.90,580.73,30.92,0000 0000 0000 0000 000000
2018-07-30 01:46:54,0.02,1.20,0.00,29.22,32.65,35.05,13.43,44.29,1011.28,2004.00,2985.00,2708.00,3099.26,600.09,581.00,30.97,0000 0000 0000 0000 000000
2018-07-30 01:51:55,0.03,1.21,0.00,29.23,32.67,35.06,13.49,44.23,1011.28,2004.00,2984.38,2707.77,3098.95,599.97,580.66,31.02,0000 0000 0000 0000 000000
2018-07-30 01:56:57,0.03,1.21,0.00,29.25,32.67,35.07,13.53,44.27,1011.28,2004.00,2983.87,2707.05,3098.17,600.32,580.87,31.07,0000 0000 0000 0000 000000
2018-07-30 02:01:58,0.02,1.21,0.00,29.27,32.67,35.08,13.55,44.30,1011.37,2003.99,2983.07,2706.96,3097.98,599.85,580.49,31.12,0000 0000 0000 0000 000000
2018-07-30 02:06:59,0.05,1.21,0.00,29.29,32.68,35.09,13.47,44.17,1011.39,2003.99,2982.56,2706.28,3097.25,599.99,580.53,31.17,0000 0000 0000 0000 000000
2018-07-30 02:12:00,0.02,1.21,0.00,29.31,32.70,35.09,13.46,44.14,1011.37,2003.98,2981.88,2705.94,3096.74,599.90,580.57,31.22,0000 0000 0000 0000 000000
2018-07-30 02:17:02,0.05,1.22,0.00,29.32,32.70,35.09,13.49,44.20,1011.41,2003.97,2981.04,2705.18,3096.03,600.07,580.69,31.27,0000 0000 0000 0000 000000
2018-07-30 02:22:03,0.02,1.22,0.00,29.35,32.71,35.10,13.49,44.36,1011.47,2003.96,2980.49,2704.98,3095.57,599.99,580.58,31.32,0000 0000 0000 0000 000000
2018-07-30 02:27:04,0.03,1.22,0.00,29.37,32.72,35.11,13.43,44.27,1011.44,2003.91,2979.92,2704.46,3095.01,599.68,580.37,31.37,0000 0000 0000 0000 000000
2018-07-30 02:32:06,0.02,1.22,0.00,29.38,32.73,35.12,13.44,44.24,1011.43,2003.72,2979.10,2704.01,3094.35,599.88,580.35,31.42,0000 0000 0000 0000 000000
2018-07-30 02:37:07,0.06,1.22,0.00,29.40,32.75,35.14,13.50,44.26,1011.40,2003.72,2978.34,2703.37,3093.67,599.86,580.37,31.47,0000 0000 0000 0000 000000
2018-07-30 02:42:08,0.00,1.22,0.00,29.42,32.75,35.15,13.57,44.35,1011.44,2003.48,2977.40,2702.93,3092.98,600.45,580.82,31.52,0000 0000 0000 0000 000000
2018-07-30 02:47:10,0.03,1.22,0.00,29.43,32.76,35.16,13.48,44.01,1011.47,2003.34,2976.86,2702.17,3092.31,600.19,580.48,31.57,0000 0000 0000 0000 000000
2018-07-30 02:52:11,0.03,1.23,0.00,29.45,32.77,35.17,13.52,44.15,1011.42,2003.30,2976.08,2701.94,3091.92,599.96,580.30,31.62,0000 0000 0000 0000 000000
2018-07-30 02:57:13,0.04,1.23,0.00,29.45,32.79,35.18,13.52,44.20,1011.44,2003.17,2975.45,2701.19,3091.12,599.97,580.32,31.67,0000 0000 0000 0000 000000
2018-07-30 03:02:14,0.01,1.23,0.00,29.46,32.80,35.18,13.47,44.21,1011.51,2003.15,2974.76,2700.97,3090.68,599.90,580.35,31.72,0000 0000 0000 0000 000000
2018-07-30 03:07:15,0.03,1.23,0.00,29.47,32.80,35.20,13.55,43.96,1011.54,2003.04,2974.01,2700.23,3090.02,600.15,580.36,31.77,0000 0000 0000 0000 000000
2018-07-30 03:12:17,0.03,1.23,0.00,29.49,32.82,35.21,13.39,44.06,1011.65,2003.03,2973.25,2699.97,3089.50,599.69,580.07,31.82,0000 0000 0000 0000 000000
2018-07-30 03:17:18,0.05,1.23,0.00,29.50,32.82,35.23,13.59,44.32,1011.65,2003.00,2972.45,2699.26,3088.81,600.24,580.50,31.87,0000 0000 0000 0000 000000
2018-07-30 03:22:19,0.04,1.24,0.00,29.51,32.84,35.24,13.50,44.13,1011.60,2003.00,2971.68,2698.77,3088.03,599.99,580.29,31.92,0000 0000 0000 0000 000000
2018-07-30 03:27:21,0.04,1.24,0.00,29.51,32.85,35.24,13.57,44.16,1011.66,2003.00,2970.99,2698.05,3087.29,600.41,580.74,31.97,0000 0000 0000 0000 000000
2018-07-30 03:32:22,0.02,1.24,0.00,29.52,32.85,35.25,13.49,44.19,1011.64,2003.00,2970.21,2697.86,3086.95,600.19,580.56,32.02,0000 0000 0000 0000 000000
2018-07-30 03:37:23,0.04,1.24,0.00,29.53,32.87,35.26,13.49,44.10,1011.62,2003.00,2969.86,2697.14,3086.25,599.96,580.27,32.07,0000 0000 0000 0000 000000
2018-07-30 03:42:24,0.74,1.26,0.00,29.55,32.87,35.27,13.43,44.16,1011.62,2003.00,2962.18,2689.42,3077.08,599.79,580.02,32.12,0000 0000 0000 0000 000000
2018-07-30 03:47:26,0.06,1.28,0.00,29.55,32.89,35.28,13.51,44.13,1011.60,2003.00,2958.41,2685.95,3072.89,599.97,580.15,32.17,0000 0000 0000 0000 000000
2018-07-30 03:52:28,0.04,1.29,0.00,29.56,32.90,35.30,13.44,44.14,1011.43,2002.99,2957.87,2685.18,3072.11,600.25,580.40,32.22,0000 0000 0000 0000 000000
2018-07-30 03:57:29,0.01,1.29,0.00,29.57,32.91,35.31,13.53,44.00,1011.30,2002.97,2957.08,2685.00,3071.96,600.25,580.28,32.27,0000 0000 0000 0000 000000
2018-07-30 04:02:30,0.03,1.29,0.00,29.57,32.92,35.32,13.51,44.17,1011.28,2002.98,2956.78,2684.69,3071.24,600.07,580.05,32.33,0000 0000 0000 0000 000000
2018-07-30 04:07:31,0.02,1.29,0.00,29.60,32.92,35.34,13.46,44.13,1011.28,2002.95,2956.05,2684.05,3070.99,600.12,580.12,32.38,0000 0000 0000 0000 000000
2018-07-30 04:12:33,0.03,1.29,0.00,29.61,32.95,35.34,13.46,44.23,1011.39,2002.91,2955.47,2683.94,3070.43,599.83,579.96,32.43,0000 0000 0000 0000 000000
2018-07-30 04:17:34,0.02,1.29,0.00,29.62,32.95,35.35,13.45,44.23,1011.44,2002.87,2954.95,2683.18,3069.99,599.97,579.98,32.48,0000 0000 0000 0000 000000
2018-07-30 04:22:36,0.02,1.29,0.00,29.63,32.96,35.36,13.46,44.27,1011.46,2002.79,2954.14,2682.99,3069.40,600.00,579.97,32.53,0000 0000 0000 0000 000000
2018-07-30 04:27:37,-0.00,1.29,0.00,29.65,32.97,35.37,13.52,44.21,1011.34,2002.55,2953.70,2682.49,3068.97,600.05,579.97,32.58,0000 0000 0000 0000 000000
2018-07-30 04:32:38,0.01,1.30,0.00,29.65,32.98,35.38,13.45,44.09,1011.29,2002.25,2953.00,2682.01,3068.23,599.79,579.68,32.63,0000 0000 0000 0000 000000
2018-07-30 04:37:40,0.02,1.30,0.00,29.67,33.00,35.39,13.47,44.07,1011.26,2002.17,2952.25,2681.69,3067.95,600.01,579.78,32.68,0000 0000 0000 0000 000000
2018-07-30 04:42:41,0.04,1.30,0.00,29.67,33.00,35.40,13.52,44.17,1011.26,2002.05,2951.54,2681.03,3067.16,600.18,580.00,32.73,0000 0000 0000 0000 000000
2018-07-30 04:47:43,0.02,1.30,0.00,29.69,33.02,35.41,13.48,44.12,1011.25,2002.02,2950.97,2680.78,3066.82,600.12,579.91,32.78,0000 0000 0000 0000 000000
2018-07-30 04:52:43,0.04,1.30,0.00,29.71,33.02,35.43,13.51,44.17,1011.26,2002.03,2950.17,2680.07,3066.07,599.91,579.47,32.83,0000 0000 0000 0000 000000
2018-07-30 04:57:45,0.03,1.30,0.00,29.72,33.04,35.44,13.42,44.19,1011.25,2002.01,2949.37,2679.82,3065.54,599.64,579.46,32.88,0000 0000 0000 0000 000000
2018-07-30 05:02:46,0.04,1.31,0.00,29.74,33.05,35.45,13.57,44.45,1011.25,2002.00,2948.55,2679.06,3064.95,600.33,579.93,32.93,0000 0000 0000 0000 000000
2018-07-30 05:07:47,0.06,1.31,0.00,29.75,33.07,35.46,13.48,44.47,1011.25,2002.00,2947.63,2678.46,3064.15,599.72,579.44,32.98,0000 0000 0000 0000 000000
2018-07-30 05:12:48,0.03,1.31,0.00,29.77,33.08,35.47,13.45,44.27,1011.25,2002.00,2946.82,2678.00,3063.62,600.04,579.73,33.03,0000 0000 0000 0000 000000
2018-07-30 05:17:50,0.04,1.31,0.00,29.80,33.10,35.48,13.46,44.42,1011.25,2002.00,2946.05,2677.53,3063.00,599.67,579.34,33.08,0000 0000 0000 0000 000000
2018-07-30 05:22:51,0.04,1.31,0.00,29.81,33.11,35.50,13.46,44.23,1011.25,2002.00,2945.39,2677.02,3062.48,600.08,579.66,33.13,0000 0000 0000 0000 000000
2018-07-30 05:27:52,0.01,1.32,0.00,29.83,33.12,35.51,13.41,44.39,1011.25,2001.99,2944.93,2676.82,3062.00,599.86,579.34,33.18,0000 0000 0000 0000 000000
2018-07-30 05:32:54,0.06,1.32,0.00,29.85,33.15,35.52,13.47,44.24,1011.25,2001.98,2943.93,2675.97,3061.27,600.17,579.57,33.23,0000 0000 0000 0000 000000
2018-07-30 05:37:54,0.12,1.32,0.00,29.86,33.15,35.54,13.55,44.27,1011.25,2001.95,2942.13,2674.29,3059.18,600.36,579.67,33.29,0000 0000 0000 0000 000000
2018-07-30 05:42:56,0.01,1.33,0.00,29.88,33.17,35.55,13.46,44.18,1011.25,2001.93,2941.77,2674.01,3058.94,600.11,579.50,33.34,0000 0000 0000 0000 000000
2018-07-30 05:47:57,0.02,1.33,0.00,29.90,33.19,35.56,13.46,44.25,1011.25,2001.85,2941.05,2673.75,3058.21,599.81,579.30,33.39,0000 0000 0000 0000 000000
2018-07-30 05:52:58,0.01,1.33,0.00,29.91,33.20,35.58,13.49,44.05,1011.25,2001.47,2940.48,2673.07,3057.95,600.00,579.27,33.44,0000 0000 0000 0000 000000
2018-07-30 05:58:00,-0.00,1.33,0.00,29.93,33.22,35.60,13.52,44.26,1011.26,2001.19,2939.95,2672.94,3057.15,600.29,579.56,33.49,0000 0000 0000 0000 000000
2018-07-30 06:03:01,0.02,1.33,0.00,29.96,33.24,35.62,13.45,44.33,1011.26,2001.08,2939.16,2672.30,3056.97,600.09,579.40,33.54,0000 0000 0000 0000 000000
2018-07-30 06:08:02,0.01,1.33,0.00,29.99,33.25,35.62,13.47,44.20,1011.27,2001.03,2938.91,2672.01,3056.30,599.99,579.20,33.59,0000 0000 0000 0000 000000
2018-07-30 06:13:04,0.03,1.33,0.00,30.01,33.27,35.64,13.52,44.15,1011.29,2001.00,2938.14,2671.77,3055.97,600.03,579.29,33.64,0000 0000 0000 0000 000000
2018-07-30 06:18:05,0.04,1.33,0.00,30.03,33.29,35.66,13.47,44.18,1011.31,2001.00,2937.70,2671.06,3055.29,600.09,579.24,33.69,0000 0000 0000 0000 000000
2018-07-30 06:23:06,0.01,1.33,0.00,30.05,33.31,35.68,13.44,44.14,1011.30,2001.00,2937.03,2670.95,3054.95,599.55,578.69,33.74,0000 0000 0000 0000 000000
2018-07-30 06:28:08,0.06,1.34,0.00,30.07,33.32,35.69,13.39,44.06,1011.28,2001.00,2936.40,2670.21,3054.17,599.85,578.93,33.79,0000 0000 0000 0000 000000
2018-07-30 06:33:09,0.01,1.34,0.00,30.10,33.35,35.71,13.49,44.15,1011.27,2000.99,2935.90,2669.97,3053.86,600.15,579.09,33.84,0000 0000 0000 0000 000000
2018-07-30 06:38:10,0.05,1.34,0.00,30.13,33.37,35.73,13.47,44.18,1011.27,2000.98,2935.13,2669.45,3053.12,600.19,579.15,33.89,0000 0000 0000 0000 000000
2018-07-30 06:43:11,-0.00,1.34,0.00,30.15,33.39,35.75,13.41,44.20,1011.27,2000.85,2934.73,2669.01,3052.91,600.10,579.04,33.94,0000 0000 0000 0000 000000
2018-07-30 06:48:12,0.01,1.34,0.00,30.18,33.40,35.77,13.38,44.12,1011.26,2000.67,2934.05,2668.74,3052.19,599.80,578.63,33.99,0000 0000 0000 0000 000000
2018-07-30 06:53:14,0.00,1.34,0.00,30.21,33.42,35.78,13.44,44.13,1011.25,2000.34,2933.60,2668.05,3051.97,600.26,578.83,34.04,0000 0000 0000 0000 000000
2018-07-30 06:58:15,0.00,1.34,0.00,30.23,33.45,35.80,13.44,44.10,1011.26,2000.20,2933.05,2667.99,3051.61,599.93,578.75,34.09,0000 0000 0000 0000 000000
2018-07-30 07:03:16,0.00,1.34,0.00,30.26,33.47,35.82,13.44,44.23,1011.26,2000.04,2932.98,2667.85,3051.03,599.98,578.70,34.14,0000 0000 0000 0000 000000
2018-07-30 07:08:18,0.03,1.34,0.00,30.28,33.49,35.84,13.45,44.21,1011.27,2000.00,2932.46,2667.22,3050.95,599.87,578.60,34.19,0000 0000 0000 0000 000000
2018-07-30 07:13:19,0.09,1.35,0.00,30.26,33.50,35.88,13.47,44.13,1011.28,2000.00,2931.25,2666.20,3049.36,600.14,578.86,34.25,0000 0000 0000 0000 000000
2018-07-30 07:18:20,0.01,1.35,0.00,30.14,33.52,35.93,13.44,44.28,1011.28,2000.00,2930.77,2665.95,3049.00,600.03,578.96,34.30,0000 0000 0000 0000 000000
2018-07-30 07:23:22,0.02,1.35,0.00,30.05,33.52,35.98,13.46,44.25,1011.28,2000.00,2930.12,2665.65,3048.80,599.84,579.02,34.35,0000 0000 0000 0000 000000
2018-07-30 07:28:23,0.03,1.35,0.00,30.06,33.52,35.97,13.44,44.42,1011.33,2000.00,2929.99,2665.17,3048.23,600.04,579.16,34.40,0000 0000 0000 0000 000000
2018-07-30 07:33:25,0.01,1.35,0.00,30.09,33.53,35.95,13.49,44.37,1011.45,1999.99,2929.61,2665.00,3048.00,600.45,579.48,34.45,0000 0000 0000 0000 000000
2018-07-30 07:38:26,0.07,1.35,0.00,30.13,33.54,35.93,13.47,44.28,1011.38,1999.97,2928.54,2664.35,3047.15,600.29,579.20,34.50,0000 0000 0000 0000 000000
2018-07-30 07:43:27,0.07,1.36,0.00,30.17,33.55,35.91,13.50,44.30,1011.37,1999.98,2927.04,2663.16,3045.93,600.16,579.14,34.55,0000 0000 0000 0000 000000
2018-07-30 07:48:29,0.03,1.36,0.00,30.23,33.55,35.91,13.47,44.38,1011.40,1999.98,2926.14,2662.88,3045.13,599.96,578.88,34.60,0000 0000 0000 0000 000000
2018-07-30 07:53:30,0.01,1.36,0.00,30.24,33.55,35.90,13.49,44.24,1011.48,1999.95,2925.97,2662.30,3045.00,600.23,579.07,34.65,0000 0000 0000 0000 000000
2018-07-30 07:58:31,0.06,1.36,0.00,30.16,33.56,35.94,13.44,44.23,1011.50,1999.89,2924.93,2661.59,3044.32,600.07,579.15,34.70,0000 0000 0000 0000 000000
2018-07-30 08:03:32,0.02,1.37,0.00,30.08,33.56,35.97,13.50,44.28,1011.50,1999.83,2924.04,2661.01,3043.29,600.19,579.38,34.75,0000 0000 0000 0000 000000
2018-07-30 08:08:34,0.01,1.37,0.00,30.09,33.56,35.97,13.45,44.23,1011.65,1999.91,2923.99,2661.00,3043.01,600.05,579.34,34.80,0000 0000 0000 0000 000000
2018-07-30 08:13:35,0.00,1.37,0.00,30.13,33.57,35.94,13.46,44.23,1011.72,1999.87,2923.80,2660.96,3043.00,599.92,579.09,34.85,0000 0000 0000 0000 000000
2018-07-30 08:18:36,0.02,1.37,0.00,30.17,33.57,35.93,13.50,44.26,1011.73,1999.92,2923.17,2660.84,3042.98,599.92,579.08,34.90,0000 0000 0000 0000 000000
2018-07-30 08:23:37,0.02,1.37,0.00,30.22,33.57,35.92,13.46,44.14,1011.73,1999.87,2923.01,2660.23,3042.61,600.02,579.11,34.95,0000 0000 0000 0000 000000
2018-07-30 08:28:39,0.01,1.37,0.00,30.26,33.57,35.91,13.45,44.12,1011.73,1999.85,2922.99,2660.03,3042.09,599.89,578.88,35.00,0000 0000 0000 0000 000000
2018-07-30 08:33:40,0.00,1.37,0.00,30.31,33.58,35.90,13.51,44.28,1011.73,1999.73,2922.47,2660.00,3042.00,600.21,579.04,35.05,0000 0000 0000 0000 000000
2018-07-30 08:38:41,-0.01,1.37,0.00,30.36,33.60,35.91,13.51,44.08,1011.73,1999.50,2922.02,2659.97,3041.95,600.05,578.83,35.10,0000 0000 0000 0000 000000
2018-07-30 08:43:42,0.00,1.37,0.00,30.40,33.60,35.92,13.42,44.36,1011.73,1999.25,2921.98,2659.54,3041.42,599.71,578.46,35.16,0000 0000 0000 0000 000000
2018-07-30 08:48:43,0.02,1.37,0.00,30.44,33.62,35.93,13.32,44.12,1011.73,1999.08,2921.41,2659.05,3041.01,599.57,578.31,35.21,0000 0000 0000 0000 000000
2018-07-30 08:53:44,0.00,1.37,0.00,30.48,33.63,35.96,13.42,44.10,1011.73,1999.04,2921.02,2659.00,3040.99,600.22,578.65,35.26,0000 0000 0000 0000 000000
2018-07-30 08:58:45,0.01,1.37,0.00,30.50,33.65,35.97,13.48,44.12,1011.73,1999.02,2920.98,2658.97,3040.59,599.87,578.53,35.31,0000 0000 0000 0000 000000
2018-07-30 09:03:46,0.04,1.37,0.00,30.52,33.67,36.00,13.35,44.13,1011.73,1999.00,2920.35,2658.44,3040.05,599.86,578.24,35.36,0000 0000 0000 0000 000000
2018-07-30 09:08:48,0.00,1.37,0.00,30.54,33.69,36.02,13.50,44.22,1011.73,1999.00,2920.00,2658.03,3039.99,600.27,578.62,35.41,0000 0000 0000 0000 000000
2018-07-30 09:13:49,0.01,1.38,0.00,30.56,33.70,36.04,13.46,44.18,1011.73,1998.99,2919.78,2658.00,3039.68,599.92,578.37,35.46,0000 0000 0000 0000 000000
2018-07-30 09:18:50,0.06,1.38,0.00,30.58,33.72,36.07,13.35,44.06,1011.73,1998.96,2918.90,2657.52,3038.78,599.67,577.97,35.51,0000 0000 0000 0000 000000
2018-07-30 09:23:51,0.04,1.38,0.00,30.62,33.74,36.10,13.44,44.13,1011.73,1998.86,2918.02,2656.12,3037.71,599.85,578.15,35.56,0000 0000 0000 0000 000000
2018-07-30 09:28:52,-0.03,1.38,0.00,30.65,33.76,36.11,13.41,44.23,1011.73,1998.46,2917.92,2656.00,3037.07,600.26,578.33,35.61,0000 0000 0000 0000 000000
2018-07-30 09:33:54,-0.01,1.38,0.00,30.66,33.78,36.14,13.41,44.17,1011.73,1998.06,2917.21,2655.98,3036.98,599.91,578.22,35.66,0000 0000 0000 0000 000000
2018-07-30 09:38:55,0.03,1.38,0.00,30.67,33.80,36.17,13.45,44.07,1011.73,1998.00,2917.00,2655.47,3036.33,599.77,578.05,35.71,0000 0000 0000 0000 000000
2018-07-30 09:43:56,0.01,1.38,0.00,30.68,33.82,36.19,13.41,44.11,1011.73,1998.00,2916.69,2655.02,3036.01,599.93,578.07,35.76,0000 0000 0000 0000 000000
2018-07-30 09:48:58,0.11,1.38,0.00,30.70,33.85,36.20,13.38,44.14,1011.73,1998.00,2915.33,2653.90,3034.65,599.70,577.84,35.81,0000 0000 0000 0000 000000
2018-07-30 09:53:59,0.02,1.39,0.00,30.73,33.86,36.23,13.44,44.22,1011.73,1997.97,2914.56,2653.02,3033.93,599.98,578.00,35.86,0000 0000 0000 0000 000000
2018-07-30 09:59:01,0.02,1.39,0.00,30.76,33.89,36.24,13.38,44.19,1011.73,1997.95,2914.05,2652.99,3033.31,599.82,577.75,35.91,0000 0000 0000 0000 000000
2018-07-30 10:04:02,-0.02,1.39,0.00,30.81,33.91,36.27,13.47,44.12,1011.73,1997.74,2913.88,2652.77,3033.01,600.19,578.08,35.96,0000 0000 0000 0000 000000
2018-07-30 10:09:03,0.01,1.39,0.00,30.84,33.94,36.30,13.44,44.29,1011.73,1997.32,2913.13,2652.09,3032.61,599.95,578.00,36.01,0000 0000 0000 0000 000000
2018-07-30 10:14:05,0.02,1.39,0.00,30.87,33.96,36.32,13.33,44.20,1011.69,1997.20,2912.39,2651.96,3032.02,599.79,577.64,36.06,0000 0000 0000 0000 000000
2018-07-30 10:19:06,0.01,1.39,0.00,30.91,33.99,36.35,13.44,44.27,1011.68,1997.07,2912.00,2651.38,3031.87,600.20,577.97,36.12,0000 0000 0000 0000 000000
2018-07-30 10:24:08,0.01,1.39,0.00,30.96,34.02,36.39,13.38,44.17,1011.51,1997.00,2911.94,2651.01,3031.15,599.73,577.28,36.17,0000 0000 0000 0000 000000
2018-07-30 10:29:09,0.03,1.39,0.00,31.01,34.05,36.43,13.46,44.23,1011.41,1996.98,2911.16,2650.85,3030.80,600.04,577.41,36.22,0000 0000 0000 0000 000000
2018-07-30 10:34:11,0.03,1.40,0.00,31.06,34.09,36.50,13.41,44.17,1011.33,1996.90,2910.79,2650.11,3030.07,599.91,577.05,36.27,0000 0000 0000 0000 000000
2018-07-30 10:39:12,0.02,1.40,0.00,31.12,34.13,36.58,13.40,43.99,1011.30,1996.72,2909.98,2649.86,3029.67,600.05,577.26,36.32,0000 0000 0000 0000 000000
2018-07-30 10:44:13,0.01,1.40,0.00,31.18,34.16,36.66,13.38,44.08,1011.33,1996.26,2908.94,2648.94,3028.71,599.71,576.78,36.37,0000 0000 0000 0000 000000
2018-07-30 10:49:14,0.12,1.40,0.00,31.22,34.21,36.73,13.35,43.98,1011.45,1996.07,2907.12,2647.46,3027.01,599.80,576.75,36.42,0000 0000 0000 0000 000000
2018-07-30 10:54:16,0.15,1.41,0.00,31.25,34.25,36.78,13.33,43.98,1011.51,1996.01,2904.64,2645.45,3024.68,599.60,576.55,36.47,0000 0000 0000 0000 000000
2018-07-30 10:59:17,0.16,1.42,0.00,31.27,34.29,36.81,13.42,44.00,1011.48,1996.00,2902.22,2643.39,3022.26,599.87,576.84,36.52,0000 0000 0000 0000 000000
2018-07-30 11:04:19,0.16,1.43,0.00,31.29,34.33,36.84,13.43,44.05,1011.41,1995.93,2899.56,2640.93,3019.46,600.12,576.92,36.57,0000 0000 0000 0000 000000
2018-07-30 11:09:20,0.09,1.43,0.00,31.31,34.37,36.87,13.36,44.01,1011.32,1995.54,2897.45,2639.01,3017.26,599.83,576.63,36.62,0000 0000 0000 0000 000000
2018-07-30 11:14:21,0.19,1.44,0.00,31.34,34.41,36.90,13.48,44.02,1011.26,1995.28,2894.41,2636.24,3014.15,600.24,576.95,36.67,0000 0000 0000 0000 000000
2018-07-30 11:19:22,0.35,1.45,0.00,31.38,34.44,36.92,13.44,44.08,1011.28,1995.06,2889.50,2631.89,3009.30,600.07,576.59,36.72,0000 0000 0000 0000 000000
2018-07-30 11:24:24,0.26,1.47,0.00,31.43,34.47,36.95,13.31,43.96,1011.27,1995.01,2884.74,2627.57,3004.61,599.59,576.02,36.77,0000 0000 0000 0000 000000
2018-07-30 11:29:25,0.42,1.49,0.00,31.48,34.50,36.99,13.35,43.78,1011.28,1995.00,2879.41,2622.21,2998.26,599.85,576.41,36.82,0000 0000 0000 0000 000000
2018-07-30 11:34:26,0.15,1.50,0.00,31.54,34.53,37.00,13.37,44.08,1011.27,1995.00,2876.36,2619.37,2994.91,600.31,576.58,36.87,0000 0000 0000 0000 000000
2018-07-30 11:39:28,0.15,1.51,0.00,31.59,34.56,37.01,13.37,43.85,1011.26,1995.00,2873.87,2617.38,2992.68,600.18,576.32,36.92,0000 0000 0000 0000 000000
2018-07-30 11:44:29,0.12,1.52,0.00,31.61,34.57,37.02,13.31,43.83,1011.25,1994.97,2871.75,2615.70,2990.79,600.03,576.14,36.97,0000 0000 0000 0000 000000
2018-07-30 11:49:31,0.11,1.52,0.00,31.62,34.60,37.05,13.33,43.83,1011.25,1994.81,2869.62,2614.05,2988.85,599.96,576.13,37.03,0000 0000 0000 0000 000000
2018-07-30 11:54:32,0.07,1.53,0.00,31.61,34.61,37.08,13.34,43.69,1011.25,1994.54,2867.66,2612.58,2987.21,599.90,576.06,37.08,0000 0000 0000 0000 000000
2018-07-30 11:59:33,0.13,1.53,0.00,31.60,34.62,37.08,13.42,43.95,1011.25,1994.21,2865.29,2610.81,2985.18,600.25,576.55,37.13,0000 0000 0000 0000 000000
2018-07-30 12:04:35,0.16,1.54,0.00,31.56,34.64,37.09,13.45,43.84,1011.25,1994.08,2862.24,2608.61,2982.71,600.25,576.44,37.18,0000 0000 0000 0000 000000
2018-07-30 12:09:36,0.14,1.55,0.00,31.49,34.65,37.10,13.41,43.83,1011.25,1994.01,2859.72,2606.77,2980.56,599.92,576.34,37.23,0000 0000 0000 0000 000000
2018-07-30 12:14:37,0.12,1.55,0.00,31.42,34.65,37.10,13.32,43.87,1011.25,1994.00,2857.52,2605.15,2978.71,600.15,576.64,37.28,0000 0000 0000 0000 000000
2018-07-30 12:19:38,0.10,1.56,0.00,31.35,34.67,37.10,13.37,43.81,1011.25,1994.00,2855.69,2603.81,2977.19,599.90,576.45,37.33,0000 0000 0000 0000 000000
2018-07-30 12:24:40,0.07,1.56,0.00,31.29,34.67,37.10,13.48,44.02,1011.25,1994.00,2854.28,2602.84,2976.02,600.24,577.05,37.38,0000 0000 0000 0000 000000
2018-07-30 12:29:41,0.05,1.57,0.00,31.25,34.67,37.09,13.39,43.95,1011.24,1994.00,2853.26,2602.05,2975.10,599.93,576.76,37.43,0000 0000 0000 0000 000000
2018-07-30 12:34:42,0.05,1.57,0.00,31.20,34.67,37.08,13.43,44.00,1011.24,1994.00,2852.59,2601.65,2974.51,600.25,577.16,37.48,0000 0000 0000 0000 000000
2018-07-30 12:39:43,0.02,1.57,0.00,31.16,34.67,37.08,13.44,43.97,1011.23,1994.00,2851.78,2601.03,2973.96,600.19,577.12,37.53,0000 0000 0000 0000 000000
2018-07-30 12:44:45,0.04,1.57,0.00,31.14,34.66,37.07,13.45,43.98,1011.23,1994.00,2850.97,2600.67,2973.20,599.83,577.08,37.58,0000 0000 0000 0000 000000
2018-07-30 12:49:46,0.05,1.58,0.00,31.11,34.65,37.06,13.44,44.04,1011.21,1994.00,2849.96,2599.99,2972.66,600.20,577.25,37.63,0000 0000 0000 0000 000000
2018-07-30 12:54:47,0.07,1.58,0.00,31.09,34.65,37.05,13.43,44.08,1011.12,1994.00,2848.71,2599.18,2971.81,599.75,576.76,37.68,0000 0000 0000 0000 000000